Location: Unspecified
(0.0000°N, 0.0000°E)
Time: 08:24:58
(UTC+00:00)

Tiros 1 despin weight - Pass Details

Date: 07 October 2023
Orbit: 583 x 627 km, 48.2° (Epoch: 05 December)

Event Time Altitude Azimuth Distance (km) Brightness Sun altitude
Rises 12:44:26 0° 198° (SSW) 2,905 ? 74.8°
Reaches altitude 10° 12:47:06 10° 184° (S) 2,000 ? 74.2°
Maximum altitude 12:50:51 25° 130° (SE) 1,283 ? 73.3°
Drops below altitude 10° 12:54:37 10° 75° (ENE) 1,997 ? 72.5°
Sets 12:57:15 0° 61° (ENE) 2,899 ? 71.8°
